Wind_Speed
15 16 11 14 17 20 22 19 16 13 13 10 6 7 8 7 3 5 13 13 13 25 26 22 19 19 18 16 16 15 16 17 17 13 10 8 6 6 5 6 3 4 7 10
16 14 9 10 16 18 11 8 8 11 10 9 10 9 12 9 4 3 10 11 14 16 18 17 17 19 18 17 18 17 17 16 15 12 10 10 10 10 9 6 3 5 7 8
14 5 8 12 11 10 10 10 9 8 9 9 7 9 6 8 6 6 8 14 11 9 7 9 13 14 16 16 16 16 19 17 17 15 14 11 10 8 6 5 6 7 8 10
11 8 9 8 10 8 10 8 12 12 10 5 7 6 8 4 5 4 9 9 8 8 10 10 9 9 8 13 16 18 20 21 19 18 14 11 9 7 7 9 10 10 10 10
6 6 14 15 6 7 12 12 16 13 9 8 7 3 9 9 9 6 11 7 4 4 3 4 5 11 12 14 17 19 20 21 22 19 14 12 9 5 5 8 11 12 12 10
13 9 9 3 3 5 9 13 12 5 3 4 5 3 1 13 10 13 16 12 6 3 4 2 5 11 13 14 17 20 24 23 23 21 18 14 10 7 6 6 10 12 12 12
2 5 6 4 4 3 4 10 3 0 1 2 4 3 3 7 7 11 11 8 6 7 10 9 7 11 11 12 15 17 18 21 21 19 18 14 10 9 10 9 11 12 13 12
4 2 7 6 5 2 5 4 2 2 3 3 3 3 2 7 9 11 10 8 8 7 11 7 6 5 13 16 14 13 17 16 16 16 14 12 11 10 11 13 12 13 12 13
3 2 4 10 9 3 2 2 1 4 3 2 3 2 5 6 8 10 12 7 6 9 6 7 10 5 6 13 19 16 11 12 13 13 13 13 12 11 11 11 14 14 12 12
1 2 2 11 12 7 4 2 1 1 0 1 1 2 2 10 14 13 7 6 6 5 4 10 13 17 11 9 15 18 15 11 13 14 14 15 14 14 14 13 12 13 12 13
0 3 8 10 10 5 6 4 2 3 2 1 4 4 3 11 11 7 5 3 4 6 6 11 19 15 10 9 10 7 8 15 16 19 20 20 19 17 15 13 12 11 14 14
2 4 6 5 5 8 7 5 5 4 3 3 1 2 4 9 11 8 4 1 3 5 9 13 18 7 4 3 6 8 1 5 15 12 19 21 21 19 16 14 14 14 13 16
3 2 4 5 3 4 7 8 5 4 5 4 4 1 5 11 10 8 6 3 4 7 8 11 11 6 5 4 1 5 5 4 5 16 15 17 20 20 18 17 18 19 19 19
2 2 4 3 8 3 1 3 5 3 3 4 8 4 11 9 6 7 11 11 8 4 8 8 7 8 10 9 8 4 4 4 7 10 10 19 22 23 24 22 21 21 21 23
8 6 5 5 4 5 6 6 10 10 13 11 12 14 11 15 15 15 14 15 14 7 9 10 8 6 6 8 9 11 11 10 7 5 10 12 21 21 26 29 26 29 26 25
12 9 9 10 10 11 13 13 16 20 20 22 19 20 18 18 17 17 16 17 17 12 12 12 11 11 12 14 13 15 14 13 10 13 13 15 16 14 17 32 35 32 33 33
14 14 13 15 16 18 18 20 18 16 12 12 17 16 13 10 7 6 6 6 12 12 11 10 12 13 15 16 18 19 14 15 16 16 18 19 15 14 17 19 25 28 32 32
15 17 18 18 14 11 18 17 14 12 15 19 18 17 13 10 8 5 5 4 6 9 12 12 15 16 16 16 16 18 20 21 22 23 22 20 22 24 20 21 24 27 31 35
20 18 14 10 12 17 13 12 14 9 9 11 15 16 13 11 7 5 6 1 5 6 6 8 11 17 22 25 26 26 26 26 28 29 28 27 28 26 25 24 24 28 31 32
11 10 10 12 6 6 9 12 19 9 10 8 9 9 10 9 8 6 3 2 4 8 12 17 20 21 21 23 25 27 27 27 27 27 28 28 28 29 30 30 30 29 26 29
18 16 15 16 11 11 13 9 12 13 5 4 8 10 9 9 8 5 4 7 11 15 16 19 21 22 21 21 22 24 25 26 26 26 28 31 32 32 32 33 34 34 33 33
22 14 16 13 12 11 16 19 20 13 7 5 4 9 8 10 7 6 8 12 14 15 17 20 20 21 21 21 22 23 23 23 25 27 28 29 31 33 34 35 35 35 35 35
28 25 18 16 12 11 7 20 18 16 13 11 9 9 9 8 7 7 12 13 15 17 19 20 19 20 20 21 23 24 24 24 25 27 29 32 34 36 38 38 37 38 38 36
28 25 24 20 22 21 20 16 16 17 17 14 13 10 10 9 10 12 12 13 17 19 21 20 19 19 21 22 25 26 27 28 28 28 27 29 31 34 36 39 41 41 41 42
28 27 28 26 24 21 15 16 20 23 18 17 13 11 11 11 12 12 11 14 18 20 19 19 20 20 21 21 23 25 25 26 26 26 25 23 23 24 26 30 36 41 42 44
27 28 28 23 20 14 13 14 18 19 16 13 12 12 11 12 12 12 13 16 20 20 21 22 21 20 21 22 23 20 19 21 21 20 23 25 26 26 27 28 31 32 36 41
Wind_Direction
267 287 291 322 320 317 315 316 329 353 351 327 354 311 288 298 16 138 121 106 137 153 157 166 171 180 189 195 199 208 211 211 212 204 199 202 207 216 213 225 238 267 256 255
268 264 309 317 321 312 313 325 353 352 4 2 348 333 315 300 227 163 141 139 141 172 190 195 198 202 204 207 211 214 214 220 216 215 202 203 213 219 223 240 264 268 270 264
260 220 303 303 318 340 337 326 329 334 327 327 328 325 317 313 242 207 158 159 160 158 157 189 211 224 226 224 221 215 211 217 212 213 212 212 217 229 252 274 267 264 262 258
262 273 269 293 316 321 325 318 306 316 312 313 328 339 358 319 303 192 185 179 180 178 183 187 190 197 204 215 221 217 211 205 208 210 212 206 208 206 224 238 241 251 258 249
239 265 291 300 294 284 319 316 318 296 269 288 321 331 359 53 46 105 165 161 172 190 216 198 156 162 165 187 203 211 214 212 209 209 207 207 205 206 229 248 256 263 261 254
300 290 286 306 299 303 304 311 324 316 209 258 342 207 10 22 92 118 129 138 127 64 1 308 248 218 206 194 193 203 208 213 216 215 212 211 212 216 248 278 271 266 264 262
333 79 98 58 358 9 319 305 292 276 153 355 342 137 15 83 123 130 131 102 58 41 32 7 321 270 251 240 213 208 211 209 211 214 217 213 213 237 252 265 275 268 270 270
351 65 39 4 311 240 315 326 322 20 341 35 4 34 44 94 103 110 98 63 60 20 349 2 341 303 252 239 232 215 212 213 217 222 220 222 224 232 251 262 272 264 268 256
28 32 8 15 354 280 255 24 30 116 103 219 324 63 97 106 116 101 99 84 36 43 42 23 6 332 269 233 228 228 216 215 208 222 231 237 236 243 251 259 265 262 259 262
305 313 316 347 335 314 209 209 13 79 283 85 289 243 136 131 123 122 105 105 49 30 19 5 339 334 275 230 212 219 218 203 205 221 227 230 235 238 242 246 256 261 255 257
242 297 305 312 306 232 200 197 125 115 126 233 176 191 150 156 146 143 131 78 27 14 328 312 333 336 298 219 163 169 223 218 219 221 219 226 232 233 237 236 236 245 247 248
234 289 295 276 165 109 113 119 183 210 199 151 180 205 200 202 195 167 153 49 354 321 300 307 329 357 54 19 122 58 36 294 229 255 225 232 239 233 233 236 238 235 238 240
243 307 327 184 168 73 71 64 82 115 154 184 239 247 200 185 196 217 246 258 290 310 294 311 14 49 29 31 327 296 331 350 207 211 219 236 247 245 243 238 238 237 234 236
232 274 341 268 211 170 24 357 346 339 267 233 233 227 205 213 236 248 255 265 263 269 285 324 20 58 56 42 24 348 319 283 257 249 233 235 240 246 250 249 248 246 244 244
228 254 277 255 244 263 279 295 305 294 267 250 261 257 229 242 254 262 259 265 247 240 271 302 330 330 326 329 348 344 337 314 292 256 250 249 236 246 253 251 259 257 251 252
235 254 264 263 272 267 269 274 280 288 265 250 250 253 254 247 252 259 252 258 243 244 257 280 309 313 311 306 309 319 316 305 283 271 289 278 259 260 259 243 265 253 249 257
243 250 257 267 273 274 272 269 274 251 268 243 240 246 247 233 218 250 259 256 231 231 254 289 303 298 297 294 298 305 298 294 288 284 288 290 269 285 284 280 267 256 256 257
261 271 264 268 264 259 267 273 255 250 264 248 246 236 226 217 210 212 243 250 237 256 276 277 280 288 291 291 293 291 289 284 279 278 281 275 278 285 283 275 273 269 263 259
271 265 250 239 242 267 259 249 212 268 272 250 240 226 221 211 200 164 141 204 251 269 284 296 299 295 292 292 293 289 283 276 271 273 274 270 272 274 272 270 272 262 254 254
226 223 224 232 222 244 297 243 227 262 262 248 214 202 208 190 184 201 262 254 266 282 292 293 291 293 299 297 293 291 286 282 281 281 280 277 274 272 269 268 268 265 263 259
233 239 238 238 234 254 232 166 190 200 253 281 236 231 219 217 225 243 266 297 306 309 306 305 307 306 301 297 292 289 290 291 290 286 283 282 280 276 272 271 270 267 268 269
234 234 243 233 219 242 220 216 210 250 248 275 208 215 218 231 234 254 293 307 310 310 320 321 316 310 303 298 294 293 292 292 292 292 291 288 285 284 282 279 276 276 275 272
229 228 234 224 242 238 211 225 229 229 247 249 241 219 214 224 239 278 299 300 312 319 319 319 314 310 308 306 304 300 298 297 294 292 291 289 287 284 283 280 278 276 275 273
237 237 237 238 235 240 248 235 224 233 234 229 219 230 220 233 254 271 292 308 314 318 322 319 316 315 309 307 305 304 304 303 299 295 290 285 283 281 278 278 278 275 272 271
232 234 234 235 243 259 251 238 227 223 221 209 223 222 230 246 263 281 293 307 316 322 321 317 315 314 312 310 308 308 307 307 307 307 307 304 299 293 287 280 274 273 271 268
225 225 227 229 250 240 230 221 200 207 212 216 222 237 246 265 276 282 299 311 319 322 320 317 318 317 315 315 315 314 315 312 315 321 324 322 314 305 300 293 284 281 275 269
Height
3179 3180 3178 3179 3178 3177 3174 3172 3169 3168 3167 3166 3166 3167 3168 3171 3173 3174 3173 3174 3175 3177 3179 3181 3183 3185 3189 3191 3194 3197 3200 3203 3204 3206 3209 3211 3213 3214 3215 3217 3217 3218 3218 3219
3181 3178 3179 3179 3176 3174 3173 3172 3171 3169 3168 3167 3166 3167 3166 3168 3172 3174 3174 3175 3176 3178 3179 3182 3184 3185 3187 3189 3192 3195 3198 3201 3203 3206 3209 3210 3212 3213 3215 3216 3217 3218 3218 3218
3181 3180 3178 3178 3177 3175 3172 3172 3171 3170 3168 3168 3166 3166 3166 3166 3168 3172 3175 3175 3176 3178 3180 3182 3183 3185 3187 3188 3190 3192 3195 3199 3202 3205 3206 3209 3211 3213 3215 3215 3216 3216 3217 3217
3179 3179 3178 3177 3176 3175 3174 3172 3171 3169 3169 3169 3168 3168 3166 3166 3166 3169 3172 3174 3176 3178 3180 3180 3181 3182 3184 3187 3189 3191 3192 3195 3199 3201 3204 3207 3209 3211 3212 3213 3214 3213 3214 3214
3179 3177 3176 3175 3175 3174 3174 3171 3169 3168 3169 3169 3169 3171 3168 3165 3166 3168 3170 3174 3176 3178 3179 3179 3180 3181 3183 3184 3185 3188 3191 3193 3195 3198 3202 3204 3206 3209 3210 3211 3211 3211 3212 3211
3175 3174 3173 3173 3173 3173 3172 3170 3168 3166 3168 3169 3169 3170 3168 3166 3167 3169 3172 3174 3176 3178 3177 3177 3179 3179 3180 3182 3183 3185 3186 3190 3193 3196 3199 3201 3203 3206 3207 3208 3209 3209 3209 3209
3173 3172 3172 3172 3172 3172 3171 3170 3169 3168 3167 3167 3167 3168 3169 3167 3168 3170 3173 3175 3176 3177 3177 3177 3176 3176 3177 3178 3181 3183 3185 3188 3192 3195 3197 3199 3200 3203 3204 3205 3206 3206 3206 3206
3173 3173 3172 3171 3171 3171 3171 3170 3169 3168 3166 3168 3168 3169 3169 3168 3170 3171 3172 3174 3175 3175 3176 3175 3173 3172 3173 3175 3178 3180 3183 3188 3191 3194 3195 3197 3198 3199 3200 3202 3202 3202 3202 3203
3172 3172 3172 3171 3170 3171 3169 3169 3169 3168 3169 3169 3168 3169 3169 3169 3171 3172 3173 3175 3175 3174 3174 3174 3173 3171 3169 3169 3172 3176 3181 3185 3187 3191 3193 3194 3195 3196 3197 3198 3198 3198 3198 3199
3173 3173 3172 3171 3170 3169 3168 3169 3169 3167 3168 3168 3168 3168 3169 3170 3172 3173 3174 3174 3174 3174 3174 3173 3171 3169 3167 3165 3167 3171 3175 3179 3183 3185 3188 3189 3190 3191 3191 3192 3193 3194 3195 3195
3172 3172 3173 3171 3169 3168 3168 3167 3167 3168 3168 3167 3166 3168 3168 3170 3172 3173 3173 3173 3172 3173 3174 3172 3170 3166 3163 3163 3164 3168 3171 3174 3176 3179 3180 3182 3185 3186 3186 3185 3186 3188 3190 3191
3171 3171 3170 3169 3168 3167 3165 3165 3165 3166 3169 3167 3168 3169 3167 3168 3170 3172 3172 3172 3172 3173 3173 3172 3171 3168 3166 3166 3167 3169 3170 3172 3173 3175 3177 3177 3179 3180 3180 3181 3181 3181 3183 3184
3170 3170 3169 3169 3170 3168 3167 3166 3166 3165 3165 3166 3166 3167 3166 3168 3169 3170 3170 3170 3171 3172 3172 3173 3171 3168 3168 3168 3168 3168 3169 3169 3168 3170 3172 3174 3175 3176 3177 3176 3176 3177 3177 3178
3169 3169 3168 3167 3166 3168 3168 3168 3167 3167 3167 3165 3164 3165 3166 3167 3168 3168 3168 3168 3169 3170 3171 3172 3171 3169 3168 3167 3167 3167 3166 3166 3166 3166 3167 3168 3170 3171 3171 3171 3173 3173 3174 3174
3167 3167 3167 3166 3166 3166 3166 3166 3165 3165 3165 3164 3164 3163 3164 3164 3165 3165 3165 3165 3166 3167 3168 3169 3169 3168 3168 3167 3166 3165 3163 3161 3162 3161 3162 3162 3162 3163 3164 3167 3168 3169 3169 3169
3164 3164 3165 3164 3164 3164 3163 3162 3161 3160 3158 3158 3159 3158 3160 3160 3161 3161 3161 3161 3162 3165 3166 3167 3167 3167 3165 3164 3164 3163 3162 3160 3159 3158 3158 3157 3157 3156 3156 3157 3157 3157 3161 3162
3161 3161 3161 3160 3161 3160 3158 3156 3155 3154 3154 3154 3154 3156 3156 3157 3158 3158 3158 3158 3159 3163 3164 3165 3164 3164 3163 3160 3159 3158 3158 3157 3156 3155 3153 3151 3150 3150 3149 3149 3150 3150 3151 3151
3156 3157 3157 3156 3157 3155 3150 3149 3149 3150 3149 3149 3150 3151 3153 3155 3156 3156 3157 3158 3159 3161 3162 3161 3160 3159 3157 3156 3155 3154 3152 3151 3150 3149 3149 3148 3145 3144 3142 3143 3142 3142 3141 3140
3150 3150 3151 3152 3151 3147 3145 3144 3145 3146 3146 3145 3146 3148 3151 3152 3153 3154 3156 3157 3158 3158 3157 3157 3156 3154 3152 3149 3147 3145 3143 3142 3141 3139 3140 3139 3138 3137 3136 3136 3135 3134 3132 3131
3142 3144 3146 3145 3146 3143 3139 3137 3142 3143 3144 3143 3144 3146 3149 3151 3152 3153 3154 3154 3155 3155 3154 3153 3151 3148 3145 3143 3139 3136 3134 3132 3131 3130 3130 3130 3129 3129 3128 3128 3127 3126 3125 3124
3136 3138 3138 3139 3139 3137 3137 3137 3139 3142 3144 3140 3142 3144 3146 3149 3151 3151 3151 3151 3151 3150 3149 3146 3144 3142 3140 3136 3134 3131 3128 3125 3123 3122 3121 3118 3117 3118 3118 3117 3117 3116 3115 3114
3129 3131 3131 3132 3133 3131 3131 3133 3136 3136 3137 3138 3139 3141 3143 3145 3147 3147 3147 3147 3146 3145 3143 3141 3138 3135 3133 3130 3127 3124 3123 3120 3117 3114 3111 3110 3108 3106 3105 3104 3103 3103 3102 3102
3120 3121 3123 3126 3125 3124 3125 3127 3129 3132 3134 3135 3136 3138 3139 3141 3142 3143 3143 3142 3141 3139 3138 3136 3132 3129 3125 3122 3119 3117 3115 3114 3112 3110 3107 3103 3100 3097 3095 3093 3093 3092 3091 3091
3109 3113 3115 3118 3118 3119 3120 3123 3125 3127 3128 3130 3132 3133 3135 3137 3138 3138 3137 3137 3135 3133 3131 3128 3125 3123 3120 3117 3112 3109 3107 3106 3104 3102 3099 3096 3093 3090 3087 3084 3082 3081 3081 3080
3102 3105 3107 3110 3111 3113 3114 3115 3117 3120 3123 3124 3126 3129 3130 3131 3132 3132 3132 3131 3129 3126 3124 3122 3120 3117 3114 3111 3108 3104 3101 3097 3093 3090 3089 3086 3083 3080 3077 3075 3072 3069 3069 3067
3092 3096 3100 3103 3106 3108 3109 3111 3112 3115 3118 3120 3123 3124 3125 3126 3126 3126 3126 3124 3122 3120 3118 3115 3113 3111 3108 3104 3101 3098 3095 3092 3089 3085 3081 3077 3074 3072 3068 3066 3064 3060 3057 3056